Other Public Products
Issued by NWS Grand Forks, ND

Home | Current Version | Previous Version | Graphics & Text | Print | Product List | Glossary On
Versions: 1 2 3 4 5 6 7 8 9 10 11 12 13 14 15 16 17 18 19 20 21 22 23 24 25 26 27 28 29 30 31 32 33 34 35 36 37 38 39 40 41 42 43 44 45 46 47 48 49 50
322
FPUS83 KFGF 051810
OPUFGF
PRAIRIE TO PINES WEATHER ROUNDUP
NATIONAL WEATHER SERVICE EASTERN NORTH DAKOTA/GRAND FORKS ND
100 PM CDT THU MAY 05 2016

 **SATELLITE DATA USED TO AUGMENT SKY COVER AT AUTOMATED STATIONS**
 *****  WEATHER ACROSS EASTERN NORTH DAKOTA  *****

CITY           SKY/WX    TMP DP  RH WIND       PRES   REMARKS
GRAND FORKS    MOSUNNY   90  41  18 W20G26    29.79F
6HR MIN TEMP:  52; 6HR MAX TEMP:  90;

GRAND FORKS AF SUNNY     90  39  17 W20G30    29.80F
GRAND CITY NWS NOT AVBL
BUXTON         NOT AVBL
DEVILS LAKE    SUNNY     84  43  23 W16       29.83F
6HR MIN TEMP:  55; 6HR MAX TEMP:  85;

FARGO          SUNNY     87  44  22 S8        29.85F
6HR MIN TEMP:  54; 6HR MAX TEMP:  87;

WAHPETON ARPT  CLEAR     82  34  17 W15G23    29.89F
$$

 *****  WEATHER ACROSS CENTRAL AND WESTERN NORTH DAKOTA  *****

CITY           SKY/WX    TMP DP  RH WIND       PRES   REMARKS
JAMESTOWN      SUNNY     85  37  18 SW14G28   29.86F
6HR MIN TEMP:  57; 6HR MAX TEMP:  85;

BISMARCK       SUNNY     84  46  26 S12G20    29.87F
6HR MIN TEMP:  50; 6HR MAX TEMP:  84;

MINOT          SUNNY     91  42  18 SW14      29.80F
6HR MIN TEMP:  65; 6HR MAX TEMP:  91;

MINOT AFB      SUNNY     87  44  22 SW13      29.79F
6HR MIN TEMP:  62; 6HR MAX TEMP:  87;

GARRISON         N/A     85  45  24 SW13      29.85F
6HR MIN TEMP:  52; 6HR MAX TEMP:  85;

WILLISTON      SUNNY     85  45  24 S9        29.82F
6HR MIN TEMP:  49; 6HR MAX TEMP:  85;

DICKINSON      SUNNY     81  34  18 VRB3      29.86F
6HR MIN TEMP:  51; 6HR MAX TEMP:  82;

HETTINGER      SUNNY     78  46  32 SE6       29.91F
6HR MIN TEMP:  45; 6HR MAX TEMP:  78;

$$

 *****  OTHER OBSERVATIONS NORTHEAST NORTH DAKOTA  *****

CITY           SKY/WX    TMP DP  RH WIND       PRES   REMARKS
WALHALLA       FAIR      90  45  20 W20G26    29.74F
LANGDON        FAIR      90  41  18 W20G28    29.80F
CAVALIER       FAIR      90  45  20 W20       29.74F
GRAFTON        FAIR      86  48  26 W21G30    29.78F
CANDO          FAIR      86  41  20 W18G25    29.82F
FORT TOTTEN    NOT AVBL
ROLLA            N/A     84  41  21 W17G23    29.82F
RUGBY          FAIR      86  45  23 W15G23    29.81F
 ***** THE ABOVE OBSERVATIONS ARE NON NWS ARE NOT QUALITY
        CONTROLLED AND MAY MIS-REPORT RAIN FOR SNOW...
$$

 *****  OTHER OBSERVATIONS SOUTHEAST NORTH DAKOTA *****

CITY           SKY/WX    TMP DP  RH WIND       PRES   REMARKS
COOPERSTOWN    NOT AVBL
VALLEY CITY    FAIR      84  39  20 W18G26    29.89F
OAKES            N/A    N/A N/A N/A MISG        N/A
GWINNER        FAIR      82  45  26 SW18G24   29.90F
SHEYENNE NWR     N/A     85  44  23 W13       29.95S
BUFFALO        NOT AVBL
WYNDMERE         N/A     84  39  20 SW15        N/A
 ***** THE ABOVE OBSERVATIONS ARE NON NWS ARE NOT QUALITY
       CONTROLLED AND MAY MIS-REPORT RAIN FOR SNOW...
$$

  *****  WEATHER ACROSS NORTHERN MINNESOTA  *****

CITY           SKY/WX    TMP DP  RH WIND       PRES   REMARKS
FLAG ISLAND    SUNNY     55  45  67 S10       29.72F
WARROAD        SUNNY     81  54  39 SW13G24   29.75F
ROSEAU         SUNNY     84  48  28 SW15G24   29.75F
HALLOCK        SUNNY     90  36  14 W23       29.73F
THF RVR FALLS  SUNNY     82  43  24 SW13      29.82F
6HR MIN TEMP:  54; 6HR MAX TEMP:  82;

HALSTAD        NOT AVBL
FOSSTON        SUNNY     81  39  22 SW18      29.86F
BAUDETTE       SUNNY     80  43  26 SW10G24   29.76F
6HR MIN TEMP:  45; 6HR MAX TEMP:  81;

WASKISH        SUNNY     75  45  33 SW16      29.82F
CROOKSTON      SUNNY     90  41  18 W23G29    29.80F
$$
  *****  WEATHER ACROSS CENTRAL AND WEST MINNESOTA  *****

CITY           SKY/WX    TMP DP  RH WIND       PRES   REMARKS
BEMIDJI        SUNNY     80  41  25 W9G25     29.86F
PARK RAPIDS    SUNNY     79  39  23 SW14G22   29.90F
6HR MIN TEMP:  47; 6HR MAX TEMP:  79;

WADENA         SUNNY     77  43  29 S12       29.92F
DETROIT LAKES  SUNNY     77  41  27 SW15      29.92F
MOORHEAD       SUNNY     82  41  23 SW7G16    29.87F
FERGUS FALLS   SUNNY     81  45  28 SW13G22   29.88F
ELBOW LAKE     FAIR      78  44  29 SW13      29.94F
6HR MIN TEMP:  48; 6HR MAX TEMP:  78;

MORRIS MN      SUNNY     81  41  24 SW14      29.93F
STAPLES        SUNNY     75  34  22 SW10G17   29.94S
WHEATON        SUNNY     84  46  26 SW10      29.93F
$$
  *****  WEATHER ELSEWHERE ACROSS MINNESOTA  *****

CITY           SKY/WX    TMP DP  RH WIND       PRES   REMARKS
DULUTH         MOSUNNY   65  35  33 SW17      29.93F
6HR MIN TEMP:  43; 6HR MAX TEMP:  67; 6HR PCP: TRACE;

INTRNTL FALLS  SUNNY     79  40  24 SW16G24   29.78F
6HR MIN TEMP:  47; 6HR MAX TEMP:  79; 6HR PCP:  0.01;

ELY            SUNNY     66  34  30 S14       29.86F
CLOQUET        SUNNY     66  28  24 SW14      29.93F
BRAINERD       SUNNY     74  33  22 SW16G22   29.94F
6HR MIN TEMP:  45; 6HR MAX TEMP:  74;

HIBBING        SUNNY     70  36  28 S10       29.87F
6HR MIN TEMP:  39; 6HR MAX TEMP:  70; 6HR PCP:  0.01;

ALEXANDRIA     SUNNY     76  37  24 S17       29.97F
6HR MIN TEMP:  48; 6HR MAX TEMP:  76;

SAINT CLOUD    SUNNY     72  31  22 SW12      29.98F
6HR MIN TEMP:  40; 6HR MAX TEMP:  72;

MINNEAPOLIS    LGT RAIN  64  36  35 SW6       30.03S
6HR MIN TEMP:  49; 6HR MAX TEMP:  67; 6HR PCP: TRACE;

$$

  *****  WEATHER ACROSS SOUTH DAKOTA  *****

CITY           SKY/WX    TMP DP  RH WIND       PRES   REMARKS
SIOUX FALLS    MOSUNNY   71  48  43 S12       30.03F
6HR MIN TEMP:  40; 6HR MAX TEMP:  71;

BROOKINGS      SUNNY     75  42  30 SW13      30.00F
WATERTOWN      SUNNY     78  42  27 SW14      29.98F
6HR MIN TEMP:  43; 6HR MAX TEMP:  78;

HURON          SUNNY     79  46  31 S12       29.96F
6HR MIN TEMP:  45; 6HR MAX TEMP:  79;

SISSETON         N/A     81  43  26 W20G26    29.90F
ABERDEEN       SUNNY     85  39  19 SW16G22   29.92F
6HR MIN TEMP:  44; 6HR MAX TEMP:  85;

MITCHELL       SUNNY     78  46  32 SW13G20   29.99F
PIERRE         SUNNY     82  48  30 S21       29.91F
6HR MIN TEMP:  42; 6HR MAX TEMP:  82;

MOBRIDGE       SUNNY     83  48  29 S22G29    29.86F
RAPID CITY     SUNNY     79  50  36 SE9       29.93F
6HR MIN TEMP:  45; 6HR MAX TEMP:  79;

$$

  *****  SOME WEATHER IN NEARBY STATES *****

CITY           SKY/WX    TMP DP  RH WIND       PRES   REMARKS
GLASGOW MT     PTSUNNY   75  49  39 SW7       29.81F
6HR MIN TEMP:  52; 6HR MAX TEMP:  76;

GREAT FALLS MT CLOUDY    71  38  29 SW6       29.91S
6HR MIN TEMP:  42; 6HR MAX TEMP:  71;

CHEYENNE WY    CLOUDY    72  26  18 NW9       30.14F
6HR MIN TEMP:  46; 6HR MAX TEMP:  72;

SCOTTSBLUFF NE CLOUDY    76  41  28 CALM      30.02F
6HR MIN TEMP:  47; 6HR MAX TEMP:  77;

OMAHA NE       MOSUNNY   72  40  31 CALM      30.08F
6HR MIN TEMP:  43; 6HR MAX TEMP:  72;

DES MOINES IA  MOSUNNY   64  30  27 SE6       30.10S
6HR MIN TEMP:  46; 6HR MAX TEMP:  65;

DAVENPORT IA   SUNNY     60  36  40 NW6       30.06F
6HR MIN TEMP:  40; 6HR MAX TEMP:  60;

CHICAGO IL     SUNNY     59  41  51 N8        30.00F
6HR MIN TEMP:  42; 6HR MAX TEMP:  60;

EAU CLAIRE WI  SUNNY     63  34  33 W7        30.04
LA CROSSE WI   SUNNY     62  33  33 NW5       30.05F
6HR MIN TEMP:  42; 6HR MAX TEMP:  63;

$$

  *****  SOME NATIONAL WEATHER *****

CITY           SKY/WX    TMP DP  RH WIND       PRES   REMARKS
LA GUARDIA NY  CLOUDY    56  45  66 NE16      29.67S
6HR MIN TEMP:  49; 6HR MAX TEMP:  56;                              C1F1C2F2C3F3C4F4C5F5C6F6C7F7C8F8C9F9CaFaCbFbCcFcCdFdCe!



USA.gov is the U.S. government's official web portal to all federal, state and local government web resources and services.